Weather History for KFAM - July, 2013

Change the Weather History Date:

Thursday, July 18, 2013

  Actual Average (KCGI) Record (KCGI)
Temperature  
Mean Temperature 80 °F 79 °F  
Max Temperature 91 °F 90 °F 99 °F (1986)
Min Temperature 69 °F 68 °F 56 °F (2009)
Degree Days  
Heating Degree Days 0 0  
Month to date heating degree days 0  
Since 1 June heating degree days 4  
Since 1 July heating degree days 0  
Cooling Degree Days 15 14  
Month to date cooling degree days 249  
Year to date cooling degree days 713  
Since 1 June cooling degree days 561  
Growing Degree Days 30 (Base 50)    
Moisture  
Dew Point 70 °F    
Average Humidity 74    
Maximum Humidity 100    
Minimum Humidity 43    
Precipitation  
Precipitation 0.00 in 0.11 in 1.03 in (2001)
Month to date precipitation 1.97  
Year to date precipitation 26.64  
Sea Level Pressure  
Sea Level Pressure 30.18 in    
Wind  
Wind Speed 1 mph (SSE)    
Max Wind Speed 13 mph    
Max Gust Speed -    
Visibility 9 miles    
Events Thunderstorm    
T = Trace of Precipitation, MM = Missing Value Source: NWS Daily Summary

Daily Weather History Graph

Daily Weather History Graph

Search for Another Location

Airport or City:

Trip Planner

Search our weather history database for the weather conditions in past years. The results will help you decide how hot, cold, wet, or windy it might be!

Date:

Astronomy

Jul. 18, 2013 Rise Set
Actual Time 5:54 AM CDT 8:21 PM CDT
Civil Twilight 5:24 AM CDT 8:51 PM CDT
Nautical Twilight 4:46 AM CDT 9:28 PM CDT
Astronomical Twilight 4:05 AM CDT 10:09 PM CDT
Moon 4:18 PM CDT (7/18) 1:43 AM CDT (7/18)
Length of Visible Light 15h 27m
Length of Day
14h 27m
Waxing Gibbous, 77% of the Moon is Illuminated
Jul 18
Waxing Gibbous
Jul 22
Full
Jul 29
Last Quarter
Aug 6
New
Aug 14
First Quarter

Hourly Weather History & Observations

Time (CDT) Temp. Heat Index Dew Point Humidity Pressure Visibility Wind Dir Wind Speed Gust Speed Precip Events Conditions
12:15 AM 73.4 °F - 71.6 °F 94% 30.27 in 10.0 mi Calm Calm - N/A   Clear
12:35 AM 73.4 °F - 71.6 °F 94% 30.27 in 5.0 mi Calm Calm - N/A   Clear
12:55 AM 71.6 °F - 69.8 °F 94% 30.27 in 5.0 mi Calm Calm - N/A   Clear
1:15 AM 71.6 °F - 69.8 °F 94% 30.27 in 10.0 mi Calm Calm - N/A   Clear
1:35 AM 71.6 °F - 69.8 °F 94% 30.27 in 9.0 mi Calm Calm - N/A   Clear
1:55 AM 71.6 °F - 69.8 °F 94% 30.26 in 9.0 mi Calm Calm - N/A   Clear
2:15 AM 71.6 °F - 69.8 °F 94% 30.26 in 6.0 mi Calm Calm - N/A   Clear
2:35 AM 71.6 °F - 69.8 °F 94% 30.25 in 6.0 mi Calm Calm - N/A   Clear
2:55 AM 69.8 °F - 69.8 °F 100% 30.24 in 7.0 mi Calm Calm - N/A   Clear
3:15 AM 69.8 °F - 68.0 °F 94% 30.23 in 9.0 mi Calm Calm - N/A   Clear
3:35 AM 69.8 °F - 68.0 °F 94% 30.23 in 9.0 mi Calm Calm - N/A   Clear
3:55 AM 69.8 °F - 68.0 °F 94% 30.23 in 9.0 mi Calm Calm - N/A   Clear
4:15 AM 69.8 °F - 68.0 °F 94% 30.22 in 7.0 mi Calm Calm - N/A   Clear
4:35 AM 69.8 °F - 68.0 °F 94% 30.22 in 8.0 mi Calm Calm - N/A   Clear
4:55 AM 69.8 °F - 66.2 °F 88% 30.22 in 6.0 mi Calm Calm - N/A   Clear
5:15 AM 69.8 °F - 66.2 °F 88% 30.22 in 7.0 mi Calm Calm - N/A   Clear
5:35 AM 69.8 °F - 68.0 °F 94% 30.23 in 8.0 mi Calm Calm - N/A   Clear
5:55 AM 69.8 °F - 68.0 °F 94% 30.23 in 8.0 mi Calm Calm - N/A   Clear
6:15 AM 69.8 °F - 68.0 °F 94% 30.23 in 7.0 mi Calm Calm - N/A   Clear
6:35 AM 69.8 °F - 68.0 °F 94% 30.23 in 8.0 mi Calm Calm - N/A   Clear
6:55 AM 71.6 °F - 68.0 °F 88% 30.23 in 10.0 mi Calm Calm - N/A   Clear
7:15 AM 71.6 °F - 69.8 °F 94% 30.24 in 9.0 mi Calm Calm - N/A   Clear
7:35 AM 73.4 °F - 71.6 °F 94% 30.24 in 9.0 mi Calm Calm - N/A   Clear
7:55 AM 75.2 °F - 71.6 °F 89% 30.24 in 10.0 mi Calm Calm - N/A   Clear
8:15 AM 77.0 °F - 71.6 °F 83% 30.24 in 10.0 mi Calm Calm - N/A   Clear
8:35 AM 80.6 °F 84.6 °F 71.6 °F 74% 30.24 in 8.0 mi Calm Calm - N/A   Clear
8:55 AM 82.4 °F 87.2 °F 71.6 °F 70% 30.24 in 10.0 mi Calm Calm - N/A   Clear
9:15 AM 84.2 °F 89.6 °F 71.6 °F 66% 30.24 in 10.0 mi Calm Calm - N/A   Clear
9:35 AM 86.0 °F 91.8 °F 71.6 °F 62% 30.24 in 10.0 mi WNW 3.5 mph - N/A   Clear
9:55 AM 86.0 °F 90.4 °F 69.8 °F 58% 30.23 in 10.0 mi NW 3.5 mph - N/A   Clear
10:15 AM 87.8 °F 92.6 °F 69.8 °F 55% 30.23 in 10.0 mi Calm Calm - N/A   Clear
10:35 AM 87.8 °F 92.6 °F 69.8 °F 55% 30.23 in 10.0 mi North 3.5 mph - N/A   Clear
10:55 AM 87.8 °F 92.6 °F 69.8 °F 55% 30.23 in 10.0 mi NNW 4.6 mph - N/A   Clear
11:15 AM 87.8 °F 92.6 °F 69.8 °F 55% 30.22 in 10.0 mi Calm Calm - N/A   Clear
11:35 AM 87.8 °F 92.6 °F 69.8 °F 55% 30.22 in 10.0 mi Calm Calm - N/A   Mostly Cloudy
11:55 AM 89.6 °F 94.7 °F 69.8 °F 52% 30.21 in 10.0 mi Calm Calm - N/A   Scattered Clouds
12:15 PM 87.8 °F 91.4 °F 68.0 °F 52% 30.20 in 10.0 mi Calm Calm - N/A   Scattered Clouds
12:35 PM 87.8 °F 92.6 °F 69.8 °F 55% 30.20 in 10.0 mi Calm Calm - N/A   Mostly Cloudy
12:55 PM 91.4 °F 96.8 °F 69.8 °F 49% 30.18 in 10.0 mi East 3.5 mph - N/A   Mostly Cloudy
1:15 PM 91.4 °F 96.8 °F 69.8 °F 49% 30.17 in 10.0 mi Calm Calm - N/A   Mostly Cloudy
1:35 PM 89.6 °F 94.7 °F 69.8 °F 52% 30.16 in 10.0 mi East 5.8 mph - N/A   Mostly Cloudy
1:55 PM 91.4 °F 96.8 °F 69.8 °F 49% 30.15 in 10.0 mi Calm Calm - N/A   Partly Cloudy
2:15 PM 91.4 °F 96.8 °F 69.8 °F 49% 30.14 in 10.0 mi SSE 4.6 mph - N/A   Mostly Cloudy
2:35 PM 91.4 °F 96.8 °F 69.8 °F 49% 30.13 in 10.0 mi ENE 5.8 mph - N/A   Mostly Cloudy
2:55 PM 91.4 °F 96.8 °F 69.8 °F 49% 30.13 in 10.0 mi NE 12.7 mph - N/A   Partly Cloudy
3:15 PM 89.6 °F 94.7 °F 69.8 °F 52% 30.12 in 10.0 mi NE 4.6 mph - N/A   Clear
3:35 PM 91.4 °F 95.4 °F 68.0 °F 46% 30.11 in 10.0 mi NE 4.6 mph - N/A   Clear
3:55 PM 91.4 °F 94.0 °F 66.2 °F 43% 30.10 in 10.0 mi Calm Calm - N/A Thunderstorm Clear
4:15 PM 91.4 °F 95.4 °F 68.0 °F 46% 30.10 in 10.0 mi Calm Calm - N/A Thunderstorm Clear
4:35 PM 91.4 °F 96.8 °F 69.8 °F 49% 30.10 in 10.0 mi SW 6.9 mph - N/A Thunderstorm Thunderstorm
4:55 PM 87.8 °F 92.6 °F 69.8 °F 55% 30.11 in 10.0 mi South 5.8 mph - N/A   Overcast
5:15 PM 84.2 °F 89.6 °F 71.6 °F 66% 30.11 in 10.0 mi WNW 8.1 mph - N/A   Overcast
5:35 PM 82.4 °F 87.2 °F 71.6 °F 70% 30.11 in 10.0 mi NW 3.5 mph - N/A Thunderstorm Mostly Cloudy
5:55 PM 82.4 °F 87.2 °F 71.6 °F 70% 30.10 in 10.0 mi NW 3.5 mph - N/A   Scattered Clouds
6:15 PM 82.4 °F 88.2 °F 73.4 °F 74% 30.10 in 10.0 mi Calm Calm - N/A   Scattered Clouds
6:35 PM 84.2 °F 90.9 °F 73.4 °F 70% 30.10 in 10.0 mi Calm Calm - N/A   Scattered Clouds
6:55 PM 82.4 °F 88.2 °F 73.4 °F 74% 30.10 in 10.0 mi Calm Calm - N/A   Partly Cloudy
7:15 PM 84.2 °F 90.9 °F 73.4 °F 70% 30.10 in 10.0 mi Calm Calm - N/A   Partly Cloudy
7:35 PM 82.4 °F 88.2 °F 73.4 °F 74% 30.10 in 10.0 mi South 4.6 mph - N/A   Clear
7:55 PM 82.4 °F 88.2 °F 73.4 °F 74% 30.10 in 10.0 mi SSE 5.8 mph - N/A   Clear
8:15 PM 82.4 °F 88.2 °F 73.4 °F 74% 30.10 in 10.0 mi SSE 5.8 mph - N/A   Clear
8:35 PM 80.6 °F 85.4 °F 73.4 °F 79% 30.09 in 10.0 mi SSE 5.8 mph - N/A   Clear
8:55 PM 78.8 °F - 73.4 °F 83% 30.10 in 10.0 mi South 4.6 mph - N/A   Clear
9:15 PM 78.8 °F - 71.6 °F 78% 30.10 in 10.0 mi South 4.6 mph - N/A   Clear
9:35 PM 78.8 °F - 71.6 °F 78% 30.11 in 10.0 mi South 4.6 mph - N/A   Clear
9:55 PM 78.8 °F - 71.6 °F 78% 30.11 in 3.0 mi South 3.5 mph - N/A   Clear
10:15 PM 77.0 °F - 71.6 °F 83% 30.11 in 10.0 mi South 3.5 mph - N/A   Clear
10:35 PM 77.0 °F - 71.6 °F 83% 30.10 in 10.0 mi South 3.5 mph - N/A   Clear
10:55 PM 75.2 °F - 69.8 °F 83% 30.10 in 10.0 mi Calm Calm - N/A   Clear
11:15 PM 75.2 °F - 69.8 °F 83% 30.10 in 10.0 mi SE 3.5 mph - N/A   Clear
11:35 PM 75.2 °F - 69.8 °F 83% 30.10 in 10.0 mi South 3.5 mph - N/A   Clear
11:55 PM 73.4 °F - 69.8 °F 88% 30.10 in 10.0 mi SSE 3.5 mph - N/A   Clear